#timestamp,LO_Frequency,Hit,StdDev 
1620691215.0,286047004.0,P
1620691215.9,286047004.0,N
1620691235.8,286047004.2,N
1620691255.6,286047003.7,N
1620691275.5,286047001.9,N
1620691295.3,286047001.5,N
1620691315.1,286047002.1,N
1620691335.9,286047001.4,N
1620691355.7,286047001.5,N
1620691375.5,286047000.1,N
1620691395.4,286047002.5,N
1620691415.2,286047004.4,N
1620691435.1,286047002.8,N
1620691436.0,286047002.8,N
1620691455.8,286047001.5,N
1620691475.6,286047002.2,N
1620691495.5,286047002.6,N
1620691515.3,286046999.8,N
1620691535.2,286047002.2,N
1620691555.9,286047003.2,N
1620691575.7,286047004.2,N
1620691595.6,286047004.3,N
1620691615.4,286047003.4,N
1620691635.2,286047005.8,Y
1620691655.1,286047002.7,P
1620691656.0,286047002.7,P
1620691675.8,286047000.8,P
1620691695.7,286047000.5,N
1620691715.5,286047002.1,N
1620691735.3,286047002.3,N
1620691755.2,286046999.7,N
1620691775.0,286047002.8,N
1620691775.9,286047002.8,N
1620691795.8,286047000.5,N
1620691815.6,286047000.5,N
1620691835.4,286046998.5,N
1620691855.3,286046999.1,N
1620691875.1,286046998.8,N
1620691895.8,286046999.3,N
1620691915.7,286047000.7,N
1620691935.5,286047001.1,N
1620691955.4,286046996.7,N
1620691975.2,286046996.8,N
1620691995.0,286046999.6,N
1620691995.9,286046999.6,N
1620692015.8,286046998.7,N
1620692035.6,286046999.0,N
1620692055.5,286047000.8,N
1620692075.3,286047001.2,N
1620692095.1,286047000.2,N
1620692115.9,286047000.5,N
1620692135.7,286046999.8,N
1620692155.5,286047000.6,N
1620692175.4,286046999.9,N
1620692195.2,286047002.1,N
1620692215.1,286047002.1,N
1620692216.0,286047002.1,N
1620692235.8,286047002.1,N
1620692255.6,286046999.7,N
1620692275.5,286047000.4,N
1620692295.3,286046999.8,N
1620692315.2,286047001.0,N
1620692335.9,286047001.1,N
1620692355.7,286046998.9,N
1620692375.6,286047000.6,N
1620692395.4,286047000.4,N
1620692415.2,286046999.8,N
1620692435.1,286047000.3,N
1620692436.0,286047000.3,N
1620692455.8,286046998.6,N
1620692475.7,286047000.7,N
1620692495.5,286047000.0,N
1620692515.3,286047002.1,N
1620692535.2,286047002.4,N
1620692555.0,286046999.7,N
1620692555.9,286046999.7,N
1620692575.7,286047000.9,N
1620692595.6,286047000.0,N
1620692615.4,286047002.6,N
1620692635.3,286047002.7,N
1620692655.1,286047002.4,N
1620692675.8,286047000.0,N
1620692695.7,286047004.0,Y
1620692715.5,286047001.6,P
1620692735.4,286047002.3,P
1620692755.2,286047002.0,P
1620692775.0,286047002.7,Y
1620692775.9,286047002.7,P
1620692795.8,286047002.8,P
1620692815.6,286046999.9,N
1620692835.4,286046999.8,N
1620692855.3,286047000.2,N
1620692875.1,286047002.6,N
1620692895.9,286047002.3,N
1620692915.7,286047001.2,N
1620692935.5,286046998.5,N
1620692955.4,286046999.2,N
1620692975.2,286046998.2,N
1620692995.1,286046998.6,N
1620692996.0,286046998.6,N
1620693015.8,286047001.1,N
1620693035.6,286046998.9,N
1620693055.5,286046998.5,N
1620693075.3,286047000.6,N
1620693095.1,286046999.9,N
1620693115.9,286047002.4,N
1620693135.7,286046999.8,N
1620693155.6,286047001.6,N
1620693175.4,286046999.9,N
1620693195.2,286047002.8,N
1620693215.1,286046998.5,N
1620693216.0,286046998.5,N
1620693235.8,286046999.6,N
1620693255.7,286046998.2,N
1620693275.5,286046998.3,N
1620693295.3,286047000.0,N
1620693315.2,286046999.8,N
1620693335.9,286046997.1,N
1620693355.7,286046999.3,N
1620693375.6,286046998.3,N
1620693395.4,286046998.4,N
1620693415.3,286047001.0,N
1620693435.1,286047001.0,N
1620693436.0,286047001.0,N
1620693455.8,286046998.2,N
1620693475.7,286046998.4,N
1620693495.5,286047000.9,N
1620693515.3,286047002.6,N
1620693535.2,286047002.5,N
1620693555.0,286047000.1,N
1620693555.9,286047000.1,N
1620693575.8,286047000.1,N
1620693595.6,286046996.9,N
1620693615.4,286046996.5,N
1620693635.3,286046996.7,N
1620693655.1,286046998.9,N
1620693675.8,286046998.8,N
1620693695.7,286047000.7,N
1620693715.5,286046998.3,N
1620693735.4,286046998.8,N
1620693755.2,286046997.2,N
1620693775.0,286046996.9,N
1620693775.9,286046996.9,N
1620693795.8,286047000.5,N
1620693815.6,286047000.5,N
1620693835.4,286047000.6,N
1620693855.3,286047000.8,N
1620693875.1,286046998.6,N
1620693895.9,286046997.0,N
1620693915.7,286046999.2,N
1620693935.5,286046999.8,N
1620693955.4,286046998.4,N
1620693975.2,286046997.4,N
1620693995.0,286046999.2,N
1620693995.9,286046999.2,N
1620694015.8,286047000.9,N
1620694035.6,286046998.5,N
1620694055.5,286046996.9,N
1620694075.3,286046998.5,N
1620694095.1,286047000.4,N
1620694115.9,286047001.1,N
1620694135.7,286046998.5,N
1620694155.5,286047001.6,N
1620694175.4,286047002.4,N
1620694195.2,286047002.3,N
1620694215.1,286047001.5,N
1620694216.0,286047001.5,N
1620694235.8,286047000.2,N
1620694255.6,286047002.4,N
1620694275.5,286047002.7,N
1620694295.3,286047002.3,N
1620694315.1,286047001.6,N
1620694335.9,286046999.8,N
1620694355.7,286047002.6,N
1620694375.6,286047001.3,N
1620694395.4,286047002.6,N
1620694415.2,286047001.9,N
1620694435.1,286046999.7,N
1620694436.0,286046999.7,N
1620694455.8,286047000.8,N
1620694475.6,286047000.6,N
1620694495.5,286047002.1,N
1620694515.3,286047001.1,N
1620694535.2,286047000.8,N
1620694555.9,286047000.6,N
1620694575.7,286047002.1,N
1620694595.6,286047002.0,N
1620694615.4,286047001.9,N
1620694635.2,286047000.0,N
1620694655.1,286047002.4,N
1620694656.0,286047002.4,N
1620694675.8,286047002.1,N
1620694695.7,286047001.4,N
1620694715.5,286047002.0,N
1620694735.3,286047001.4,N
1620694755.2,286047003.7,Y
1620694775.0,286047004.3,P
1620694775.9,286047004.3,N
1620694795.8,286047001.6,N
